Probability
0 0 0 0 0 0 0 0 0 0 0 0 1 1 2 2 1 3 6 8 10 16 23 32 37 38 40 43 44 42 37 37 40 40 35 31 29 28 26 22 19 16 12 10
0 0 0 0 0 0 0 0 0 0 0 1 2 2 1 1 1 2 4 5 9 15 23 30 35 38 40 42 41 38 35 35 38 37 33 31 31 30 27 23 19 15 11 10
0 0 0 0 0 0 1 0 0 0 0 1 2 1 0 0 1 1 2 3 7 15 23 29 34 37 38 39 37 33 32 33 34 34 31 30 32 32 28 23 19 15 12 10
0 0 0 0 0 0 0 0 0 0 0 1 1 0 0 0 0 1 1 2 6 13 20 27 32 34 34 35 34 32 30 31 32 31 29 29 31 32 28 22 19 16 13 11
0 0 0 0 0 0 0 0 0 0 0 0 0 0 0 0 0 0 1 2 5 10 16 23 30 32 31 31 32 31 30 31 32 31 30 30 30 30 26 21 19 17 14 11
0 0 0 0 0 0 0 0 0 1 0 0 0 0 0 0 0 0 1 3 6 8 13 21 27 30 29 27 27 29 31 33 33 32 31 30 28 27 25 21 17 16 15 13
0 0 0 0 0 0 0 0 0 0 0 0 0 1 1 1 0 0 0 2 6 8 12 19 23 25 27 25 24 27 32 34 34 33 30 28 26 24 22 18 15 14 13 13
0 0 0 0 0 0 0 0 0 0 0 0 0 1 2 1 1 1 0 2 6 8 11 15 19 24 28 29 28 30 32 34 33 30 27 26 23 21 19 15 13 11 11 11
0 0 0 0 0 0 0 0 0 0 0 0 0 1 3 3 2 2 2 3 6 9 11 15 20 25 29 32 35 35 34 33 31 28 26 24 21 18 16 14 11 10 9 9
0 0 0 0 0 0 0 0 0 0 0 0 0 1 4 5 4 4 4 5 6 10 14 17 20 25 29 34 38 38 35 32 30 27 25 23 19 15 12 12 12 10 9 8
0 0 0 0 0 0 0 0 0 0 0 0 0 1 3 4 4 5 6 6 7 11 14 16 19 24 29 32 35 34 31 30 28 26 24 23 18 12 10 11 12 10 8 7
0 0 0 0 0 0 0 0 0 0 0 0 1 2 3 3 4 5 5 6 8 11 13 15 17 22 28 30 31 30 27 26 26 24 23 22 17 12 9 9 10 8 7 6
0 0 0 0 0 0 0 0 0 0 0 0 1 2 3 3 4 5 5 7 11 14 14 15 17 22 26 30 31 28 26 25 24 22 21 21 18 14 10 7 6 6 6 6
0 0 0 0 0 0 0 0 0 0 0 0 1 2 2 2 3 5 7 11 14 16 15 16 20 24 28 31 32 29 28 27 25 22 21 21 18 14 10 6 4 4 4 4
2 1 0 0 0 0 0 0 0 0 0 0 1 2 2 3 3 4 7 11 14 15 13 14 20 27 31 33 34 33 33 33 30 24 20 19 17 13 9 6 3 3 3 4
4 2 0 0 0 0 0 1 1 1 2 2 2 3 4 4 4 6 7 9 12 14 13 15 22 30 34 35 37 38 38 38 35 27 20 19 16 13 9 6 4 4 4 5
5 4 2 1 0 0 1 2 3 4 4 4 5 6 7 8 9 10 10 11 13 15 17 20 26 32 36 38 40 41 39 38 34 27 22 20 18 13 9 6 5 6 6 6
6 7 4 2 0 0 1 3 5 7 6 6 7 8 9 11 12 12 14 15 16 17 20 24 29 33 36 38 41 41 39 36 31 25 22 22 19 14 10 8 9 10 10 9
7 8 5 2 0 0 1 2 4 6 7 6 6 6 8 10 11 11 14 16 16 17 22 27 32 35 36 37 39 39 37 35 30 24 22 22 20 17 15 13 14 15 14 13
7 10 8 3 1 1 1 2 3 5 6 7 6 6 8 11 12 13 15 16 16 18 23 29 33 37 37 36 36 36 34 31 27 24 23 21 19 18 19 19 20 20 17 14
7 11 11 7 4 3 2 3 4 7 8 8 7 8 11 13 15 17 17 17 16 18 22 26 29 34 36 34 32 30 28 24 21 22 22 20 18 17 18 20 22 21 17 11
8 11 13 12 9 7 6 6 8 13 14 11 10 10 12 12 13 14 15 15 14 15 17 19 23 29 33 31 27 24 22 18 16 18 19 18 18 16 16 19 21 21 16 10
9 12 14 14 13 13 11 10 11 14 14 11 9 9 9 8 7 8 10 11 11 12 13 13 17 22 24 23 20 18 17 15 13 14 17 18 19 18 17 19 21 20 15 11
7 10 12 14 15 14 11 10 11 11 9 6 4 4 4 4 4 6 9 10 11 13 12 11 12 14 14 14 13 14 14 13 12 13 14 16 17 18 18 19 20 18 14 12
6 8 11 14 15 12 9 8 8 6 5 3 2 2 2 3 5 8 10 11 13 14 12 11 11 11 10 8 8 9 10 10 11 11 10 10 10 11 14 16 15 13 11 10
6 7 10 12 14 13 10 9 6 4 2 2 2 2 1 3 6 9 11 12 13 14 12 12 14 13 10 7 6 6 7 7 8 8 7 5 5 6 9 12 11 10 8 7
Wind_Speed
13 11 10 10 11 12 12 11 10 8 4 5 7 7 7 7 8 7 7 7 7 7 8 7 8 7 8 6 6 5 4 4 3 3 3 2 2 2 2 2 3 3 2 1
12 13 12 11 11 12 12 12 11 7 4 5 6 8 7 7 8 8 8 8 8 8 7 8 8 7 7 7 6 5 4 4 4 3 2 2 2 2 2 2 3 3 2 1
13 9 7 9 11 12 11 10 10 7 6 7 7 9 9 8 8 8 8 8 9 9 9 8 8 8 8 7 6 5 5 4 4 4 2 2 2 2 2 3 2 2 2 2
12 11 9 9 11 12 10 9 10 9 8 7 8 8 7 6 8 9 8 8 9 9 10 10 9 8 8 8 7 6 5 4 3 3 3 3 3 2 3 2 3 3 2 2
12 11 11 11 9 9 10 10 10 11 10 10 9 8 6 5 7 8 8 8 8 9 9 10 10 9 8 7 7 6 5 5 4 3 3 2 2 2 2 3 3 2 2 2
15 13 10 10 8 8 10 10 9 10 9 11 10 8 5 4 6 6 8 7 7 7 8 9 9 9 8 7 7 7 7 6 5 4 4 3 3 2 3 3 3 2 2 2
13 12 9 6 7 7 8 7 6 6 6 8 6 5 2 3 4 4 5 7 8 7 7 8 9 10 9 9 8 8 8 7 6 5 4 4 4 3 3 3 3 2 2 2
9 8 6 6 7 8 7 7 7 7 7 7 7 3 3 6 5 4 4 5 7 7 6 7 9 9 9 9 9 9 8 7 7 6 5 4 4 3 3 2 2 2 1 2
8 9 8 7 7 8 8 8 9 9 11 9 5 1 3 6 5 5 4 4 5 6 6 7 7 9 9 9 9 9 8 7 7 6 5 5 4 3 3 3 2 1 1 2
10 12 10 8 7 8 9 8 6 6 7 8 6 4 3 5 5 5 4 3 4 4 5 6 6 7 8 8 9 9 9 8 7 7 6 6 5 3 3 3 2 2 2 1
8 11 12 9 8 8 8 8 6 6 7 7 7 3 2 3 3 4 4 4 4 4 4 4 5 8 8 8 9 9 9 8 7 7 6 5 5 4 4 3 3 2 2 2
6 8 11 12 9 9 9 8 7 6 7 7 6 4 2 2 4 4 3 4 4 4 4 4 4 6 7 7 8 8 8 8 7 6 6 5 5 5 4 3 3 3 3 3
5 6 9 8 6 6 7 8 8 7 7 6 6 4 1 2 3 3 3 3 4 4 4 4 4 5 7 7 7 7 7 7 7 7 7 6 5 5 4 3 3 3 3 3
5 7 9 11 11 10 10 10 9 8 7 7 7 6 3 1 1 1 2 3 5 4 4 4 4 4 5 5 6 7 7 7 6 6 6 6 5 5 4 4 3 3 3 3
5 9 10 13 16 15 13 13 11 11 10 9 7 6 3 1 1 2 2 2 3 3 4 4 4 4 5 5 5 6 6 6 6 6 6 6 5 5 4 4 4 3 3 4
3 8 12 14 15 15 14 13 11 9 9 9 7 4 2 1 1 2 2 2 2 2 3 3 3 5 5 5 5 6 6 6 6 6 5 5 5 5 5 4 4 4 3 3
6 7 11 13 14 14 12 9 7 5 5 5 5 3 2 2 2 1 2 2 1 1 3 3 2 3 4 4 4 5 5 6 6 6 5 5 5 5 5 5 4 4 3 3
8 8 7 10 11 12 5 5 5 5 2 4 4 2 1 2 3 3 2 1 0 1 2 2 2 2 4 4 4 4 5 6 6 5 5 5 5 4 4 4 4 3 3 3
8 8 8 9 11 10 4 6 7 6 3 5 4 4 4 2 1 2 3 2 1 1 2 3 3 3 3 4 4 5 4 4 5 5 5 5 5 4 3 3 3 2 2 3
8 7 8 9 11 9 4 7 7 7 2 6 7 6 5 4 2 1 3 3 2 2 3 3 3 4 4 3 4 5 4 4 4 4 4 4 4 4 3 3 3 2 2 3
8 8 9 11 11 5 5 8 7 4 3 6 6 5 6 5 3 2 2 2 2 2 3 3 3 3 3 3 4 4 4 4 4 4 4 4 4 4 3 3 2 2 3 3
7 6 7 8 8 4 6 6 4 4 5 5 6 5 4 3 3 2 2 2 1 1 2 3 2 3 3 3 4 3 3 3 3 3 4 4 3 3 3 3 3 3 3 4
4 4 3 2 3 2 5 5 5 5 5 5 5 4 3 2 2 1 1 1 1 1 2 2 2 3 3 3 3 3 2 2 2 3 3 3 3 3 3 4 4 3 3 3
4 5 3 3 3 3 4 4 5 5 5 5 4 3 3 3 2 1 0 1 1 1 2 2 3 3 3 3 3 3 3 3 3 3 2 2 3 4 4 4 4 4 4 4
8 7 5 4 5 6 5 6 6 6 5 5 3 2 2 2 2 1 0 1 1 1 1 1 2 3 3 3 3 3 3 3 3 3 3 3 3 4 4 4 3 5 3 3
7 7 6 4 5 6 7 7 7 6 5 5 4 2 1 2 2 1 0 1 1 2 2 1 1 2 3 3 3 2 2 3 3 3 3 3 3 3 4 4 3 2 2 4
Wind_Direction
241 238 248 254 251 264 283 287 288 277 248 243 258 254 241 205 208 214 201 189 181 176 168 156 152 150 149 144 141 147 157 153 156 155 168 168 160 162 148 132 129 129 133 137
249 247 253 261 264 271 281 280 281 282 274 255 271 265 257 232 209 212 212 194 183 173 160 152 151 150 149 149 151 155 156 161 171 160 158 167 152 158 134 111 123 139 141 159
250 260 263 276 278 274 277 284 290 288 280 267 260 263 250 231 213 204 212 200 186 178 165 162 161 162 161 156 157 161 155 155 165 155 158 151 143 164 147 142 147 153 147 158
263 265 264 264 272 281 285 294 293 289 278 269 257 269 255 222 205 200 203 201 189 182 170 169 168 167 165 165 161 152 151 152 161 161 173 171 176 176 156 150 143 144 158 161
273 271 270 273 280 291 296 301 302 293 284 274 257 257 251 212 205 203 199 198 188 183 171 171 168 164 162 164 166 157 159 162 164 169 172 174 175 155 126 122 134 149 154 163
273 273 267 275 286 285 293 291 288 279 270 262 253 247 247 202 199 198 189 177 176 182 175 169 164 158 158 162 170 168 167 164 168 175 174 175 167 155 134 137 154 168 155 154
269 270 258 258 279 280 290 292 288 272 251 261 263 245 207 150 166 187 181 170 168 177 178 166 167 163 160 165 172 167 163 167 170 176 176 175 173 161 157 165 166 164 152 144
278 276 259 260 276 287 280 272 275 289 289 292 289 260 129 125 122 124 141 156 165 173 176 172 167 166 162 167 167 163 165 168 172 178 178 173 175 176 169 158 150 164 150 150
292 285 280 270 271 273 273 275 284 286 288 286 282 200 151 140 140 141 152 157 158 164 173 173 164 162 162 165 164 164 166 169 173 176 171 178 182 170 158 165 178 171 153 163
292 294 284 277 268 253 260 278 289 285 297 294 290 276 213 164 162 152 154 167 150 148 170 168 164 162 162 159 157 161 166 170 175 175 179 175 169 166 169 179 163 151 159 157
284 286 288 275 262 276 266 261 272 284 284 291 294 300 95 136 130 150 152 145 140 144 161 164 165 162 157 156 160 164 170 171 173 175 174 163 168 173 183 183 168 165 168 176
287 286 286 283 281 275 271 268 263 269 274 278 283 293 33 90 124 121 128 132 130 145 162 168 173 161 155 160 164 166 170 174 174 173 167 166 168 175 185 183 172 175 178 182
305 286 285 282 270 262 269 273 272 266 269 272 271 272 300 45 76 107 129 130 129 141 146 165 171 164 155 158 158 162 170 170 174 170 167 167 174 175 180 180 175 180 185 183
273 265 268 276 281 289 279 279 277 271 266 265 259 260 258 223 140 158 108 113 127 148 145 154 162 156 149 152 156 163 171 170 168 163 165 166 171 174 178 181 181 187 187 189
277 273 269 271 277 280 277 276 271 268 270 271 268 272 276 229 224 160 124 139 141 147 149 155 159 150 152 155 161 166 166 163 162 163 169 168 169 174 179 181 186 187 189 202
262 282 285 278 276 279 277 274 271 269 272 270 268 275 348 344 221 169 152 153 154 160 148 145 160 156 160 164 172 165 163 160 158 165 170 167 169 174 177 184 189 192 198 208
257 267 279 281 285 285 274 284 288 286 288 286 286 305 345 300 329 135 128 137 170 177 154 143 157 154 155 159 163 160 158 155 159 166 171 165 173 181 179 189 187 193 198 209
253 267 271 276 280 270 275 326 314 300 321 327 325 335 342 13 16 39 66 91 156 172 154 146 151 151 158 153 148 148 154 160 162 170 172 166 172 177 178 184 184 189 190 207
225 243 261 267 267 263 286 323 320 301 324 4 356 357 0 22 16 66 57 51 58 145 143 146 143 143 150 153 151 145 150 165 169 174 175 171 170 169 178 181 179 183 191 215
216 219 246 262 268 271 320 336 316 279 249 9 7 354 336 333 314 35 46 46 71 71 87 105 122 127 127 139 147 149 157 166 180 178 178 175 165 172 185 171 174 183 203 222
233 229 238 256 262 268 339 336 325 296 341 354 356 354 345 348 1 26 53 58 64 87 110 115 122 130 136 142 146 161 170 175 186 181 180 168 163 177 180 162 181 200 217 227
249 249 246 255 260 264 346 342 4 2 3 355 357 1 3 8 22 36 53 85 85 103 123 136 137 130 142 150 154 161 173 178 176 172 173 166 169 198 183 168 197 212 216 224
282 284 276 282 276 358 5 9 16 15 359 354 358 356 350 338 345 26 66 104 127 136 140 137 144 134 140 151 155 166 170 175 160 159 172 173 181 197 185 183 203 213 216 221
317 331 295 274 289 331 350 344 354 353 343 334 348 347 343 320 312 318 168 149 151 140 128 141 156 154 153 165 166 163 168 170 165 164 174 190 199 205 197 196 202 211 216 220
319 322 314 296 312 313 322 333 335 336 331 336 336 333 338 303 289 295 299 147 152 141 144 151 162 166 172 171 171 171 175 177 178 173 183 208 225 218 206 208 211 219 218 216
307 306 299 297 322 311 313 320 321 318 317 318 317 313 301 277 291 288 170 133 149 155 162 164 167 181 182 176 175 174 185 185 186 191 200 216 225 216 215 212 215 199 194 180